STARLINK-31557, 59357

Orbit data source: Space-Track

STARLINK-31557, 59357 is a payload satellite owned by SpaceX/Seattle (US) in LEO that was launched on Sun, 31 Mar 2024 UTC via an FALCON 9 launch vehicle from the Air Force Eastern Test Range (AFETR). Payload-class satellites include a variety of spacecraft equipped with specific instruments for various scientific and technological missions. These include communications satellites like Starlink; space stations such as the ISS; scientific satellites like the Hubble; Earth observation satellites from companies like Planet Labs, Umbra, and HawkEye 360; GPS; miniature CubeSats for education and research; and military/defense satellites.

Loading next visibility...
Identifier
59357, 2024-060K
Orbit
LEO
Country
Flag of USUS
Related business
Manufacturer
SpaceX/Seattle
Mission
Operational Commercial Communications
Bus & Motor
STARLINK V2M, Unknown motor
Mass
730 kg wet, ~700 kg dry
Launch date (UTC)
2024-03-31 (2 years ago)
Launch vehicle
FALCON 9
Launch site
Air Force Eastern Test Range (AFETR)
Object type
Payload
Rocket body
Debris
Shape & HBR
Box + 2 Pan, 17.7 m
Radar Cross Section
33.884 m², Large (>1 m²)

Expand to show TLE details & history
Last TLE update: 3 days ago

TLE from 3 days ago
0 STARLINK-31557
1 59357U 24060K   26171.04454977  .00001837  00000-0  76259-4 0  9990
2 59357  42.9995  37.7147 0001456 264.6121  95.4565 15.27587095125760
Epoch: 2026-06-20T01:04Z
TLE epoch observation values (Epoch: 2026-06-20T01:04:09.100Z)
Latitude
0.00003°
Longitude
113.41199°
Altitude
482.898 km
Speed
7.626 km/s
True Right ascension
02h 30m 51s
True Declination
0° 00' 00"
Sunlit
Object was in daylight at epoch
Visualization orbit readout
Latitude
Unknown
Longitude
Unknown
Altitude
Unknown
Speed
Unknown
Apparent Right ascension
Unknown
Apparent Declination
Unknown
Sunlit
N/A
Visualization observer readout
Local Sidereal Time
00:51:19
Azimuth
Unknown
Elevation
Unknown
Doppler factor
Unknown
Orbital elements
Apogee altitude
485.972 km
Perigee altitude
483.974 km
Semi-major axis
6,863.11 km
Eccentricity
0.00015
Inclination
42.9995°
RAAN
37.7147°
Arg. of periapsis
264.6121°
True anomaly
95.47311°
Mean anomaly
95.4565°
Eccentric anomaly
95.4648°
Mean motion
3.81735 °/min
Orbital period
94.31 mins
BSTAR
0.000076259
Loading maneuver chart data...
Computing Atmospheric mass density...
Loading historical data...
Loading historical data...
Loading historical data...
Loading historical data...
Loading historical data...
Loading historical data...
Loading historical data...

Documentation

Showing up to 5 results
|